Location: Ladrillo (historical)
(32.8195°N, 117.2231°W)
Time: 19:42:34
(UTC+00:00)

Explorer 7 - All Passes

Search period start: 04 March 2021 00:00
Search period end: 14 March 2021 00:00
Orbit: 484 x 677 km, 50.3° (Epoch: 03 March)

Date Brightness Start Highest point End Pass type
(mag) Time Alt. Az. Time Alt. Az. Time Alt. Az.
04 Mar - 02:09:40 10° N 02:10:40 11° NNE 02:11:41 10° NNE visible
04 Mar - 03:48:14 10° NW 03:52:04 44° NE 03:55:43 10° ESE visible
04 Mar - 05:29:36 10° W 05:32:12 17° SW 05:34:45 10° S night (unlit)
04 Mar - 19:25:05 10° S 19:29:13 29° SE 19:33:13 10° ENE daylight
04 Mar - 21:05:11 10° WSW 21:09:40 41° NW 21:13:57 10° NE daylight
04 Mar - 22:49:35 10° NW 22:51:07 11° NNW 22:52:38 10° N daylight
05 Mar - 02:13:14 10° N 02:15:34 15° NNE 02:17:50 10° ENE visible
05 Mar - 03:52:38 10° NW 03:56:38 81° NE 04:00:25 10° SE visible
05 Mar - 19:28:58 10° SSW 19:33:37 49° SE 19:38:06 10° ENE daylight
05 Mar - 21:10:16 10° W 21:14:20 28° NNW 21:18:13 10° NNE daylight
06 Mar - 02:17:14 10° NNW 02:20:23 21° NNE 02:23:23 10° E visible
06 Mar - 03:57:13 10° WNW 04:01:06 53° SW 04:04:48 10° SSE visible
06 Mar - 17:56:38 10° SE 17:58:01 11° SE 17:59:24 10° ESE daylight
06 Mar - 19:33:15 10° SW 19:38:05 85° SE 19:42:44 10° NE daylight
06 Mar - 21:15:38 10° WNW 21:19:04 20° NNW 21:22:23 10° NNE daylight
07 Mar - 02:21:25 10° NNW 02:25:06 31° NE 02:28:37 10° E visible
07 Mar - 04:02:04 10° WNW 04:05:30 28° SW 04:08:47 10° S visible
07 Mar - 17:58:49 10° S 18:02:19 20° SE 18:05:46 10° E daylight
07 Mar - 19:37:51 10° WSW 19:42:37 59° NW 19:47:12 10° NE daylight
07 Mar - 21:21:16 10° WNW 21:23:53 15° NNW 21:26:27 10° NNE daylight
08 Mar - 00:46:38 10° N 00:48:24 12° NNE 00:50:08 10° NE daylight
08 Mar - 02:25:43 10° NW 02:29:45 52° NE 02:33:32 10° ESE visible
08 Mar - 04:07:29 10° W 04:09:48 15° SW 04:12:05 10° SSW visible
08 Mar - 18:02:19 10° SSW 18:06:41 34° SE 18:10:57 10° ENE daylight
08 Mar - 19:42:44 10° WSW 19:47:13 38° NW 19:51:33 10° NNE daylight
08 Mar - 21:27:17 10° NW 21:28:47 11° NNW 21:30:17 10° N daylight
09 Mar - 00:50:31 10° NNW 00:53:17 17° NNE 00:55:57 10° ENE daylight
09 Mar - 02:30:10 10° NW 02:34:17 86° SW 02:38:09 10° SE visible
09 Mar - 18:06:19 10° SSW 18:11:06 58° SE 18:15:46 10° NE daylight
09 Mar - 19:47:53 10° W 19:51:54 26° NNW 19:55:47 10° NNE daylight
10 Mar - 00:54:36 10° NNW 00:58:04 24° NNE 01:01:22 10° E daylight
10 Mar - 02:34:48 10° WNW 02:38:44 45° SW 02:42:26 10° SSE visible
10 Mar - 16:33:09 10° SSE 16:35:28 13° SE 16:37:46 10° E daylight
10 Mar - 18:10:41 10° SW 18:15:34 85° NW 18:20:19 10° NE daylight
10 Mar - 19:53:17 10° WNW 19:56:40 19° NNW 19:59:58 10° NNE daylight
10 Mar - 23:20:08 10° N 23:21:10 11° NNE 23:22:13 10° NNE daylight
11 Mar - 00:58:49 10° NNW 01:02:46 36° NE 01:06:29 10° ESE daylight
11 Mar - 02:39:44 10° WNW 02:43:05 24° SW 02:46:17 10° S visible
11 Mar - 16:35:56 10° S 16:39:46 23° SE 16:43:34 10° ENE daylight
11 Mar - 18:15:21 10° WSW 18:20:07 53° NW 18:24:46 10° NE daylight
11 Mar - 19:58:57 10° NW 20:01:31 14° NNW 20:04:01 10° NNE daylight
11 Mar - 23:23:46 10° NNW 23:26:06 14° NNE 23:28:21 10° NE daylight
12 Mar - 01:03:10 10° NW 01:07:23 62° NE 01:11:19 10° ESE daylight
12 Mar - 02:45:23 10° W 02:47:22 13° SW 02:49:19 10° SSW visible
12 Mar - 16:39:35 10° SSW 16:44:07 39° SE 16:48:37 10° ENE daylight
12 Mar - 18:20:17 10° W 18:24:44 34° NW 18:29:05 10° NNE daylight
12 Mar - 20:04:57 10° NW 20:06:25 11° NNW 20:07:54 10° N daylight
12 Mar - 23:27:47 10° NNW 23:30:57 19° NNE 23:33:58 10° ENE daylight
13 Mar - 01:07:39 10° NW 01:11:54 74° SW 01:15:51 10° SE daylight
13 Mar - 16:43:41 10° SW 16:48:33 67° SE 16:53:20 10° NE daylight
13 Mar - 18:25:29 10° W 18:29:27 24° NNW 18:33:19 10° NNE daylight
13 Mar - 23:31:56 10° NNW 23:35:42 27° NNE 23:39:17 10° E daylight
